EW9138 Weather Reports


Display with metric or nautical units.
time (UTC)temp
F
wind
direction
speed
MPH
gust
MPH
rain 1hr
in
rain 24hr
in
rain mn
in
humidity
%
barometer
mb
20260904002256 68 295 1.0 2.0 0.00 0.00 0.00 80 1021.8
20260904001756 68 295 2.0 5.0 0.00 0.00 0.00 79 1021.8
20260904001256 68 295 2.0 5.0 0.00 0.00 0.00 79 1021.8
20260904000755 69 353 2.0 5.0 0.00 0.00 0.00 78 1021.8
20260904000256 69 324 1.0 5.0 0.00 0.00 0.00 78 1021.8
20260903235256 70 336 2.0 3.0 0.00 0.00 0.00 77 1021.7
20260903234756 70 333 2.0 5.0 0.00 0.00 0.00 75 1021.7
20260903234256 69 333 2.0 5.0 0.00 0.00 0.00 75 1021.7
20260903233756 69 357 2.0 5.0 0.00 0.00 0.00 76 1021.7
20260903233255 69 356 2.0 3.0 0.00 0.00 0.00 76 1021.7
20260903232256 69 356 2.0 5.0 0.00 0.00 0.00 76 1021.8
20260903231256 69 285 1.0 3.0 0.00 0.00 0.00 76 1021.5
20260903230756 70 288 2.0 2.0 0.00 0.00 0.00 76 1021.5
20260903230256 70 288 2.0 3.0 0.00 0.00 0.00 75 1021.5
20260903224756 71 6 2.0 5.0 0.00 0.00 0.00 73 1021.6
20260903224256 70 355 1.0 5.0 0.00 0.00 0.00 73 1021.7
20260903223756 70 345 2.0 3.0 0.00 0.00 0.00 74 1021.7
20260903223257 71 348 2.0 2.0 0.00 0.00 0.00 74 1021.7
20260903222756 71 348 2.0 5.0 0.00 0.00 0.00 74 1021.8
20260903222256 71 348 1.0 5.0 0.00 0.00 0.00 74 1021.8
20260903221756 71 10 1.0 3.0 0.00 0.00 0.00 73 1021.8
20260903221256 71 297 0.0 3.0 0.00 0.00 0.00 73 1021.5
20260903220848 71 298 0.0 2.0 0.00 0.00 0.00 73 1021.5
20260903220256 71 299 0.0 2.0 0.00 0.00 0.00 73 1021.5
20260903215757 71 357 1.0 2.0 0.00 0.00 0.00 73 1021.4
20260903215256 71 358 1.0 2.0 0.00 0.00 0.00 73 1021.4
20260903214756 71 358 1.0 2.0 0.00 0.00 0.00 72 1021.4
20260903214257 71 276 1.0 2.0 0.00 0.00 0.00 72 1021.3
20260903212756 72 251 1.0 2.0 0.00 0.00 0.00 71 1021.2
20260903212256 72 251 1.0 2.0 0.00 0.00 0.00 70 1021.2
20260903211756 72 251 1.0 3.0 0.00 0.00 0.00 70 1021.2
20260903211257 72 251 1.0 3.0 0.00 0.00 0.00 69 1021.2
20260903210756 73 8 1.0 3.0 0.00 0.00 0.00 69 1021.2
20260903210256 73 8 1.0 3.0 0.00 0.00 0.00 69 1021.2
20260903205756 73 8 2.0 3.0 0.00 0.00 0.00 69 1021.1
20260903204256 73 344 1.0 2.0 0.00 0.00 0.00 68 1021.1
20260903203756 73 344 1.0 2.0 0.00 0.00 0.00 68 1021.1
20260903203256 73 213 1.0 3.0 0.00 0.00 0.00 68 1021.1
20260903202756 73 214 1.0 3.0 0.00 0.00 0.00 68 1021.0
20260903202256 74 194 0.0 3.0 0.00 0.00 0.00 67 1021.0
20260903201757 74 168 0.0 2.0 0.00 0.00 0.00 67 1021.0
20260903201256 74 168 0.0 2.0 0.00 0.00 0.00 67 1021.0
20260903200757 74 168 0.0 2.0 0.00 0.00 0.00 66 1021.0
20260903200257 75 168 0.0 2.0 0.00 0.00 0.00 65 1021.0
20260903195756 75 168 1.0 2.0 0.00 0.00 0.00 65 1020.8
20260903194756 75 168 2.0 2.0 0.00 0.00 0.00 63 1020.8
20260903193756 76 47 2.0 5.0 0.00 0.00 0.00 63 1020.7
20260903193256 76 65 2.0 5.0 0.00 0.00 0.00 63 1020.7
20260903192756 76 201 2.0 5.0 0.00 0.00 0.00 62 1020.7
20260903192256 76 320 2.0 5.0 0.00 0.00 0.00 62 1020.7
20260903191757 76 32 2.0 5.0 0.00 0.00 0.00 62 1020.7
20260903191256 76 3 2.0 5.0 0.00 0.00 0.00 61 1020.6
20260903190756 76 0 2.0 5.0 0.00 0.00 0.00 61 1020.6
20260903190256 76 5 2.0 5.0 0.00 0.00 0.00 61 1020.6
20260903185756 76 0 2.0 6.0 0.00 0.00 0.00 61 1020.5
20260903185256 76 357 2.0 6.0 0.00 0.00 0.00 61 1020.5
20260903184757 76 355 2.0 6.0 0.00 0.00 0.00 61 1020.5
20260903183756 77 2 2.0 5.0 0.00 0.00 0.00 61 1020.3
20260903183257 77 359 2.0 5.0 0.00 0.00 0.00 60 1020.3
20260903182757 77 13 2.0 5.0 0.00 0.00 0.00 60 1020.1
20260903182257 77 4 2.0 5.0 0.00 0.00 0.00 60 1020.1
20260903181757 77 1 3.0 5.0 0.00 0.00 0.00 59 1020.1
20260903181256 78 9 3.0 6.0 0.00 0.00 0.00 60 1019.9
20260903180756 78 96 3.0 6.0 0.00 0.00 0.00 60 1019.9
20260903180256 78 3 2.0 6.0 0.00 0.00 0.00 59 1019.9
20260903175756 78 0 2.0 6.0 0.00 0.00 0.00 59 1019.8
20260903175257 78 10 2.0 6.0 0.00 0.00 0.00 59 1019.8
20260903174756 78 27 2.0 5.0 0.00 0.01 0.00 60 1019.8
20260903174256 78 3 2.0 5.0 0.00 0.01 0.00 59 1019.7
20260903172756 79 65 2.0 5.0 0.00 0.01 0.00 58 1019.7
20260903172256 80 56 2.0 3.0 0.00 0.01 0.00 58 1019.7
20260903171756 80 93 2.0 5.0 0.00 0.01 0.00 57 1019.7
20260903171257 80 61 2.0 6.0 0.00 0.01 0.00 56 1019.7
20260903170756 81 77 2.0 6.0 0.00 0.01 0.00 56 1019.7
20260903170257 81 92 2.0 6.0 0.00 0.01 0.00 55 1019.7
20260903165757 82 86 2.0 5.0 0.00 0.01 0.00 55 1019.6
20260903165257 83 65 2.0 8.0 0.00 0.01 0.00 54 1019.6
20260903164757 83 177 3.0 8.0 0.00 0.01 0.00 52 1019.6
20260903164257 84 65 3.0 7.0 0.00 0.01 0.00 53 1019.6
20260903163757 84 113 3.0 9.0 0.00 0.01 0.00 52 1019.6
20260903163257 85 145 3.0 9.0 0.00 0.01 0.00 48 1019.6
20260903162757 85 185 2.0 9.0 0.00 0.01 0.00 47 1019.5
20260903162257 86 163 2.0 7.0 0.00 0.01 0.00 49 1019.5
20260903161257 86 183 2.0 5.0 0.00 0.01 0.00 50 1019.4
20260903160757 86 189 2.0 5.0 0.00 0.01 0.00 49 1019.4
20260903155258 87 173 2.0 8.0 0.00 0.01 0.00 44 1019.3
20260903154757 87 243 3.0 7.0 0.00 0.01 0.00 45 1019.3
20260903154257 87 177 3.0 7.0 0.00 0.01 0.00 46 1019.2
20260903153757 86 339 3.0 8.0 0.00 0.01 0.00 44 1019.2
20260903153257 86 331 3.0 9.0 0.00 0.01 0.00 44 1019.2
20260903152757 86 149 3.0 9.0 0.00 0.01 0.00 43 1019.1
20260903152257 86 354 3.0 9.0 0.00 0.01 0.00 43 1019.1
20260903151757 86 94 4.0 7.0 0.00 0.01 0.00 44 1019.1
20260903151257 86 193 5.0 10.0 0.00 0.01 0.00 43 1019.1
20260903150757 86 343 3.0 13.0 0.00 0.01 0.00 44 1019.1
20260903150258 87 118 3.0 13.0 0.00 0.01 0.00 43 1019.1
20260903145757 87 73 3.0 9.0 0.00 0.01 0.00 43 1019.1
20260903145257 87 119 3.0 10.0 0.00 0.01 0.00 44 1019.1
20260903144257 87 172 5.0 12.0 0.00 0.01 0.00 44 1019.1
20260903143757 87 0 3.0 12.0 0.00 0.01 0.00 43 1019.1
20260903143257 87 84 3.0 9.0 0.00 0.01 0.00 44 1019.1
20260903142758 87 257 4.0 10.0 0.00 0.01 0.00 44 1019.5
20260903142257 87 211 5.0 15.0 0.00 0.01 0.00 43 1019.5
20260903141757 87 53 3.0 15.0 0.00 0.01 0.00 43 1019.5
20260903141258 87 9 3.0 7.0 0.00 0.01 0.00 43 1019.6
20260903140758 87 164 3.0 10.0 0.00 0.01 0.00 43 1019.6
20260903140257 87 2 2.0 10.0 0.00 0.01 0.00 43 1019.6
20260903135257 87 160 2.0 6.0 0.00 0.01 0.00 43 1019.8
20260903134757 87 165 2.0 6.0 0.00 0.01 0.00 44 1019.8
20260903134257 87 64 2.0 8.0 0.00 0.01 0.00 43 1019.8
20260903133757 87 96 3.0 8.0 0.00 0.01 0.00 44 1019.8
20260903133257 87 193 3.0 9.0 0.00 0.01 0.00 43 1019.8
20260903132757 87 33 4.0 9.0 0.00 0.01 0.00 44 1019.8
20260903132257 87 358 5.0 9.0 0.00 0.01 0.00 43 1019.8
20260903131757 86 201 3.0 12.0 0.00 0.01 0.00 43 1019.8
20260903130757 86 80 3.0 8.0 0.00 0.01 0.00 45 1019.7
20260903124758 86 299 2.0 8.0 0.00 0.01 0.00 45 1019.8
20260903124257 86 342 2.0 7.0 0.00 0.01 0.00 45 1019.9
20260903123758 86 199 2.0 6.0 0.00 0.01 0.00 48 1019.9
20260903123258 86 197 2.0 5.0 0.00 0.01 0.00 49 1019.9
20260903122757 85 193 2.0 5.0 0.00 0.01 0.00 50 1020.1
20260903122257 85 127 2.0 6.0 0.00 0.01 0.00 48 1020.1
20260903121757 85 184 2.0 6.0 0.00 0.01 0.00 47 1020.1
20260903121258 85 3 2.0 6.0 0.00 0.01 0.00 48 1020.3
20260903120257 84 334 2.0 6.0 0.00 0.01 0.00 50 1020.3
20260903115757 84 207 2.0 6.0 0.00 0.01 0.00 52 1020.4
20260903115257 83 190 2.0 5.0 0.00 0.01 0.00 55 1020.4
20260903114758 83 194 2.0 5.0 0.00 0.01 0.00 54 1020.4
20260903113257 81 275 2.0 3.0 0.00 0.01 0.00 54 1020.5
20260903112257 81 205 2.0 3.0 0.00 0.01 0.00 53 1020.7
20260903111757 80 201 2.0 3.0 0.00 0.01 0.00 56 1020.7
20260903111258 80 200 2.0 3.0 0.00 0.01 0.00 58 1021.1
20260903110757 79 200 2.0 5.0 0.00 0.01 0.00 57 1021.1
20260903110257 79 200 2.0 5.0 0.00 0.01 0.00 57 1021.1
20260903105757 79 132 3.0 7.0 0.00 0.01 0.00 57 1021.3
20260903103257 78 274 2.0 6.0 0.00 0.01 0.00 60 1021.3
20260903102757 77 59 3.0 5.0 0.00 0.01 0.00 60 1021.4
20260903102257 77 206 3.0 6.0 0.00 0.01 0.00 60 1021.4
20260903101757 76 254 3.0 6.0 0.00 0.01 0.00 60 1021.4
20260903101257 76 205 2.0 6.0 0.00 0.01 0.00 60 1021.6
20260903100758 76 189 2.0 5.0 0.00 0.01 0.00 60 1021.6
20260903100258 76 176 2.0 5.0 0.00 0.01 0.00 62 1021.6
20260903095757 76 159 2.0 5.0 0.00 0.01 0.00 62 1022.0
20260903095258 75 256 2.0 5.0 0.00 0.01 0.00 62 1022.0
20260903094757 75 280 2.0 5.0 0.00 0.01 0.00 64 1022.0
20260903093757 75 239 2.0 5.0 0.00 0.01 0.00 64 1022.3
20260903093257 74 222 2.0 3.0 0.00 0.01 0.00 66 1022.3
20260903092757 74 211 2.0 2.0 0.00 0.01 0.00 67 1022.5
20260903092257 73 210 1.0 2.0 0.00 0.01 0.00 67 1022.5
20260903091757 73 257 2.0 2.0 0.00 0.01 0.00 69 1022.5
20260903091257 72 257 2.0 5.0 0.00 0.01 0.00 70 1022.6
20260903090757 72 257 2.0 5.0 0.00 0.01 0.00 72 1022.6
20260903090257 71 269 1.0 5.0 0.00 0.01 0.00 72 1022.6
20260903085757 71 260 2.0 5.0 0.00 0.01 0.00 71 1022.5
20260903085257 70 4 2.0 2.0 0.00 0.01 0.00 74 1022.5
20260903084758 70 4 2.0 3.0 0.00 0.01 0.00 74 1022.5
20260903083757 69 4 1.0 2.0 0.00 0.01 0.00 77 1022.6
20260903083258 68 4 1.0 2.0 0.00 0.01 0.00 78 1022.6
20260903082757 68 4 2.0 3.0 0.00 0.01 0.00 77 1022.6
20260903082257 68 4 2.0 5.0 0.00 0.01 0.00 78 1022.6
20260903081757 67 3 2.0 5.0 0.00 0.01 0.00 79 1022.6
20260903081257 67 351 2.0 5.0 0.00 0.01 0.00 79 1022.5
20260903080257 66 10 2.0 5.0 0.00 0.01 0.00 82 1022.5
20260903075757 65 9 1.0 3.0 0.00 0.01 0.00 83 1022.4
20260903075257 65 9 0.0 2.0 0.00 0.01 0.00 85 1022.4
20260903074757 65 9 1.0 2.0 0.00 0.01 0.00 85 1022.4
20260903074257 65 9 1.0 2.0 0.00 0.01 0.00 86 1022.8
20260903073757 64 9 1.0 3.0 0.00 0.01 0.00 86 1022.8
20260903073257 64 9 0.0 3.0 0.00 0.01 0.00 87 1022.8
20260903072758 64 9 0.0 3.0 0.00 0.01 0.00 88 1022.9
20260903072257 64 9 0.0 1.0 0.00 0.01 0.00 88 1022.9
20260903071757 63 9 1.0 2.0 0.00 0.01 0.00 88 1022.9
20260903071257 63 9 1.0 2.0 0.00 0.01 0.00 88 1022.8
20260903070757 63 9 1.0 2.0 0.00 0.01 0.00 89 1022.8
20260903065757 62 2 1.0 2.0 0.00 0.01 0.00 90 1022.8
20260903065258 62 358 2.0 2.0 0.00 0.01 0.00 90 1022.8
20260903064757 62 358 2.0 3.0 0.00 0.01 0.00 90 1022.8
20260903064257 62 348 2.0 3.0 0.00 0.01 0.00 90 1022.8
20260903063758 62 305 1.0 3.0 0.00 0.01 0.00 90 1022.8
20260903062758 62 5 0.0 3.0 0.00 0.01 0.00 91 1022.7
20260903062258 62 8 0.0 2.0 0.00 0.01 0.00 91 1022.7
20260903061758 61 8 1.0 2.0 0.00 0.01 0.00 91 1022.7
20260903060758 61 8 1.0 6.0 0.00 0.01 0.00 91 1022.7
20260903060258 61 9 0.0 6.0 0.00 0.01 0.00 91 1022.7
20260903055757 61 4 1.0 5.0 0.00 0.01 0.00 91 1022.5
20260903055258 61 292 1.0 3.0 0.00 0.01 0.00 91 1022.5
20260903054758 61 292 2.0 3.0 0.00 0.01 0.00 91 1022.5
20260903054258 61 297 2.0 3.0 0.00 0.01 0.00 90 1022.4
20260903053758 61 297 2.0 3.0 0.00 0.01 0.00 90 1022.4
20260903053258 61 326 1.0 3.0 0.00 0.01 0.00 90 1022.4
20260903052757 61 2 1.0 2.0 0.00 0.01 0.00 90 1022.3
20260903052257 61 2 1.0 2.0 0.00 0.01 0.00 90 1022.3
20260903051758 61 2 2.0 2.0 0.00 0.01 0.00 90 1022.3
20260903050758 61 2 2.0 5.0 0.00 0.01 0.00 90 1022.1
20260903050258 61 2 2.0 5.0 0.00 0.01 0.00 90 1022.1
20260903045757 61 341 2.0 3.0 0.00 0.01 0.00 90 1021.9
20260903045257 61 351 2.0 5.0 0.00 0.01 0.00 90 1021.9
20260903044758 61 352 1.0 5.0 0.00 0.01 0.00 90 1021.9
20260903043758 62 265 0.0 2.0 0.00 0.01 0.00 90 1021.8
20260903043258 62 265 0.0 2.0 0.00 0.01 0.00 90 1021.8
20260903042759 62 265 1.0 2.0 0.00 0.01 0.00 90 1021.7
20260903041758 62 265 1.0 2.0 0.00 0.01 0.00 90 1021.7
20260903040757 62 265 0.0 5.0 0.00 0.01 0.00 89 1021.8
20260903040258 62 265 0.0 5.0 0.00 0.01 0.00 89 1021.8
20260903035757 62 3 0.0 2.0 0.00 0.01 0.00 89 1021.6
20260903034257 62 3 1.0 2.0 0.00 0.01 0.00 89 1021.8
20260903033258 62 3 2.0 5.0 0.00 0.01 0.00 89 1021.8
20260903032759 63 9 2.0 5.0 0.00 0.01 0.00 89 1021.7
20260903031758 63 1 1.0 5.0 0.00 0.01 0.00 89 1021.7
20260903031258 63 354 0.0 3.0 0.00 0.01 0.00 89 1021.7
20260903030758 63 354 1.0 3.0 0.00 0.01 0.00 89 1021.7
20260903025758 63 7 2.0 5.0 0.00 0.01 0.00 89 1021.8
20260903025257 63 7 1.0 5.0 0.00 0.01 0.00 89 1021.8
20260903024758 63 337 1.0 3.0 0.00 0.01 0.00 88 1021.8
20260903024258 63 305 1.0 2.0 0.00 0.01 0.00 88 1021.9
20260903023758 63 305 1.0 2.0 0.00 0.01 0.00 89 1021.9
20260903023258 64 305 1.0 2.0 0.00 0.01 0.00 89 1021.9
20260903022758 64 305 2.0 3.0 0.00 0.01 0.00 88 1021.8
20260903022259 64 302 2.0 6.0 0.00 0.01 0.00 88 1021.8
20260903021758 64 348 2.0 6.0 0.00 0.01 0.00 88 1021.8
20260903021258 64 0 1.0 6.0 0.00 0.01 0.00 88 1021.6
20260903020758 64 8 1.0 3.0 0.00 0.01 0.00 88 1021.6
20260903015758 64 8 1.0 2.0 0.00 0.01 0.00 88 1021.7
20260903015259 64 8 1.0 5.0 0.00 0.01 0.00 88 1021.7
20260903013758 64 352 1.0 0.0 0.00 0.01 0.00 88 1021.8
20260903013258 64 352 2.0 2.0 0.00 0.01 0.00 88 1021.8
20260903012758 64 352 2.0 3.0 0.00 0.01 0.00 88 1021.6
20260903012258 64 352 1.0 3.0 0.00 0.01 0.00 88 1021.6
20260903011758 64 339 1.0 3.0 0.00 0.01 0.00 88 1021.6
20260903011258 64 283 0.0 2.0 0.00 0.01 0.00 88 1021.7
20260903010758 64 283 0.0 3.0 0.00 0.01 0.00 88 1021.7
20260903010258 64 283 0.0 3.0 0.00 0.01 0.00 88 1021.7
20260903005759 64 284 0.0 2.0 0.00 0.01 0.00 88 1021.6
20260903005300 65 346 0.0 1.0 0.00 0.01 0.00 88 1021.6
20260903004800 65 346 0.0 3.0 0.00 0.01 0.00 87 1021.6
20260903003758 65 290 1.0 3.0 0.00 0.01 0.00 87 1021.6
20260903003258 65 347 1.0 2.0 0.00 0.01 0.00 87 1021.6